Location: Kvarnån
(66.4000°N, 22.2667°E)
Time: 20:49:49
(UTC+00:00)

TRACE - Pass Details

Date: 15 October 2024
Orbit: 423 x 441 km, 97.4° (Epoch: 06 November)

Event Time Altitude Azimuth Distance (km) Brightness Sun altitude
Rises 18:13:12 0° 19° (NNE) 2,404 8.2 -19.5°
Reaches altitude 10° 18:15:13 10° 19° (NNE) 1,534 7.2 -19.7°
Maximum altitude 18:18:30 84° 291° (WNW) 438 4.3 -20.0°
Enters shadow 18:20:49 18° 204° (SSW) 1,134 6.4 -20.2°
Exits shadow 18:23:00 - 203° (SSW) 2,063 7.7 -20.4°
Sets 18:23:46 0° 203° (SSW) 2,396 8.1 -20.5°
